Theta_e
319 320 324 324 330 327 324 324 322 322 322 321 320 321 321 320 321 322 320 319 318 318 318 320 324 327 327 329 332 333 337 337 335 332 331 330 329 326 322 321 319 317 314 314 313 325 332 335 336
319 321 324 325 327 325 324 322 322 321 320 319 319 320 321 321 319 319 319 321 314 314 317 319 321 325 326 332 333 334 335 334 334 333 331 330 329 324 321 319 317 314 313 312 312 322 332 335 337
319 321 326 325 323 324 324 322 321 320 319 319 319 319 318 319 318 317 318 315 314 313 314 318 318 319 320 321 329 333 333 334 334 332 331 330 327 325 318 316 315 315 313 310 309 318 333 334 338
320 322 321 324 322 322 322 321 320 320 319 318 318 319 319 317 317 317 314 313 312 313 313 316 315 315 316 317 320 327 334 334 334 333 331 330 328 324 317 316 325 329 327 314 310 316 332 333 338
319 321 324 323 321 321 320 319 318 319 319 319 318 319 319 318 315 315 315 312 313 316 313 313 315 316 316 318 319 325 331 333 334 334 332 330 328 323 321 326 331 329 330 326 314 316 329 333 337
321 320 323 323 321 320 320 318 318 319 319 318 317 318 318 316 315 313 313 315 317 319 317 312 313 316 319 319 322 323 327 330 331 332 333 331 330 327 332 330 330 328 326 328 324 322 331 332 336
321 322 323 321 321 321 320 317 319 318 319 318 316 317 318 315 313 313 315 316 316 317 315 312 313 316 318 319 318 321 326 329 328 333 332 331 329 326 327 327 328 326 325 329 329 324 333 333 335
320 321 321 322 321 321 318 317 317 317 318 314 314 317 315 313 312 312 313 314 314 317 318 315 317 319 313 317 317 316 315 317 323 332 333 331 328 327 327 327 327 326 325 329 331 322 332 334 337
318 323 321 320 320 320 318 318 318 316 315 315 314 314 313 313 310 310 309 309 309 310 311 315 319 318 321 321 320 322 317 316 319 331 333 331 329 328 328 327 326 325 325 328 331 325 332 334 336
321 322 320 319 319 319 318 317 316 316 317 314 314 314 312 308 307 308 307 307 307 307 308 308 310 317 323 326 324 326 330 327 331 330 333 331 330 329 329 330 327 325 325 328 331 328 331 333 335
319 320 318 317 317 317 316 316 314 316 316 313 313 313 308 306 305 305 305 304 305 305 306 307 308 308 314 322 325 329 325 332 330 328 331 331 329 329 329 328 328 323 324 329 331 332 331 332 333
318 317 317 317 315 315 316 314 315 315 313 310 311 308 305 305 304 303 303 303 303 304 304 304 306 308 309 315 320 326 330 330 329 329 328 329 329 329 328 328 325 322 323 325 330 330 327 332 328
318 317 315 314 313 314 313 314 314 314 311 310 308 305 304 304 303 302 302 301 302 302 302 302 302 306 313 312 316 319 324 326 330 328 329 329 329 328 328 327 326 322 323 325 329 326 325 323 325
317 315 315 313 314 313 314 314 313 314 309 309 304 304 303 302 302 301 300 300 300 300 300 300 301 301 304 312 316 316 319 322 324 327 327 328 328 328 328 327 326 322 323 324 328 328 326 324 319
314 316 316 314 313 313 313 315 315 312 307 308 304 304 303 301 301 300 299 299 299 299 299 298 300 301 299 299 305 316 315 318 321 324 323 326 328 328 327 326 326 323 325 325 327 328 326 325 323
316 316 317 315 314 313 313 314 315 309 308 307 303 302 302 301 300 299 298 298 298 298 299 298 298 299 300 297 299 304 313 314 319 321 323 322 325 328 326 325 326 325 325 326 325 325 325 324 321
318 318 317 315 313 313 314 314 315 307 306 303 302 301 300 300 300 299 298 297 296 297 299 297 297 299 300 302 298 299 304 310 315 317 319 320 322 325 326 325 326 324 324 325 324 322 321 322 321
315 314 315 316 314 314 314 314 311 305 303 301 300 299 299 299 299 299 297 295 295 296 298 297 296 296 297 300 302 298 299 303 308 314 318 319 320 322 324 325 325 324 324 324 323 323 320 320 320
314 315 315 314 314 312 311 310 309 302 302 301 299 298 297 297 296 295 295 295 295 295 296 296 295 295 295 298 301 302 298 299 301 306 309 320 318 319 324 324 324 324 323 323 323 322 320 321 320
314 313 312 313 313 310 309 309 307 301 299 300 298 298 297 296 295 294 294 294 294 294 294 295 295 294 295 296 298 301 301 297 297 300 306 307 319 318 318 322 324 323 322 323 323 321 320 321 321
313 311 312 311 310 310 309 309 307 301 299 298 298 298 297 295 294 294 294 293 293 293 293 293 294 293 293 294 295 297 300 300 297 297 301 305 307 318 317 318 322 322 322 321 322 321 319 320 321
311 308 308 309 309 309 308 307 309 303 302 299 298 297 296 294 294 294 293 292 292 292 292 292 293 293 292 293 294 295 296 300 299 298 295 300 305 306 318 319 320 322 322 320 322 320 319 319 318
310 305 306 308 308 308 308 308 310 307 307 299 298 296 295 294 294 293 292 292 292 292 292 292 292 292 292 293 293 293 294 295 299 298 297 295 302 304 305 317 320 317 320 319 322 320 319 318 317
304 307 307 307 307 308 309 306 308 307 302 298 297 295 294 294 293 292 292 292 292 292 292 292 292 291 292 292 292 293 293 294 295 298 297 296 298 303 305 316 318 319 319 318 320 320 319 318 317
306 306 307 312 313 314 305 303 304 300 298 297 296 294 293 293 292 292 291 292 291 291 291 291 291 290 290 290 291 292 292 293 294 297 297 296 293 301 303 304 316 316 316 317 319 318 320 318 316
305 304 305 306 309 308 303 302 304 300 297 297 295 294 293 292 292 291 291 291 291 290 289 288 287 288 288 289 290 291 291 293 293 295 297 296 295 295 301 304 304 317 318 316 318 319 319 317 316
306 304 303 302 303 301 303 303 300 299 298 297 295 293 292 292 292 291 291 290 289 289 288 286 283 281 281 283 287 289 291 292 292 294 296 296 295 293 297 301 303 304 316 316 317 318 318 315 315
300 301 300 300 301 304 304 303 302 298 297 296 294 293 292 292 291 291 290 289 289 286 284 282 280 279 279 279 280 282 287 290 291 293 295 296 296 294 295 300 302 304 314 317 316 316 317 315 315
298 298 297 297 299 299 301 303 298 297 296 294 294 292 292 291 291 290 289 289 286 284 282 280 278 277 277 277 278 279 281 287 290 291 294 295 296 295 294 295 298 302 303 316 316 316 316 316 315
296 297 298 297 299 296 297 297 299 297 296 294 293 292 291 291 290 289 289 287 285 283 281 279 278 277 276 276 276 277 278 280 284 288 291 295 295 295 294 293 294 301 304 309 314 315 315 316 314
Wind_Speed
4 5 2 1 4 5 4 4 4 4 5 7 6 8 12 12 8 7 13 18 18 15 14 10 11 15 18 19 19 18 17 18 18 17 16 16 16 17 19 20 18 18 17 17 17 17 17 19 20
3 4 1 3 4 1 5 3 5 7 8 8 8 7 8 9 9 11 12 12 18 16 16 12 12 13 15 17 19 20 20 20 20 20 20 18 16 17 18 19 18 17 17 17 18 19 18 20 22
3 2 4 3 2 4 2 2 4 4 3 4 5 3 7 7 9 9 13 22 21 17 16 17 14 15 16 17 21 23 23 22 22 23 22 21 19 18 17 18 16 15 16 17 18 21 20 22 25
2 2 4 5 2 2 2 4 6 5 4 1 5 8 2 5 8 10 19 21 20 16 16 19 19 20 23 25 26 26 26 26 25 24 24 23 21 19 18 17 16 15 16 17 19 22 22 24 27
3 4 3 1 3 1 1 5 7 6 5 6 4 7 11 4 10 16 20 23 22 16 19 20 22 23 24 25 27 28 29 28 27 27 26 25 23 20 18 17 19 18 18 19 20 24 25 26 29
4 4 5 1 3 1 1 3 6 7 6 5 5 11 3 9 16 25 23 19 18 19 20 23 23 24 26 27 28 29 29 29 30 30 28 28 25 23 21 21 19 18 18 20 22 25 26 27 31
5 3 3 2 2 2 2 5 7 9 10 9 7 5 5 22 24 23 21 19 18 18 21 24 24 25 27 28 29 30 30 31 31 31 31 29 26 24 24 23 21 20 20 20 24 28 28 29 32
4 3 2 2 4 2 2 7 4 7 7 6 7 8 18 24 24 20 19 18 19 22 24 21 21 24 27 29 31 32 34 36 34 33 31 29 27 26 25 24 23 22 22 21 25 30 29 31 34
3 4 1 2 3 3 2 7 8 4 3 8 8 14 18 18 19 20 21 24 24 23 17 16 24 22 23 27 27 30 32 35 35 35 33 31 29 28 27 27 25 25 23 22 25 30 30 32 36
3 3 4 5 6 7 10 8 9 5 12 15 15 18 18 18 21 23 26 28 30 32 32 28 21 21 24 23 26 28 27 29 33 37 36 34 32 29 23 23 26 25 21 21 25 28 34 34 39
2 4 3 3 4 9 9 4 4 6 11 14 17 18 16 19 23 25 25 27 28 28 32 34 36 26 21 24 29 26 28 29 32 35 38 36 34 29 27 27 25 24 23 22 24 27 36 39 39
4 4 0 1 6 8 7 6 5 14 11 18 14 12 16 20 23 27 28 30 31 32 33 37 38 36 27 23 26 29 31 29 33 35 35 37 35 30 28 26 27 26 25 24 24 30 26 47 39
3 5 1 3 9 7 6 6 4 12 16 14 14 17 18 20 21 23 25 27 30 32 33 35 37 38 34 29 22 27 32 35 36 35 36 36 37 34 31 28 29 28 26 27 26 23 31 17 25
1 7 6 1 2 3 8 2 5 4 18 16 16 16 17 20 22 25 31 31 32 32 35 35 35 36 34 30 27 26 32 34 37 40 39 36 36 35 33 31 31 30 27 27 29 37 33 34 17
4 4 9 6 2 2 13 7 5 7 14 13 13 14 14 18 22 26 28 30 30 32 34 39 37 35 36 35 31 29 29 35 35 39 42 40 36 36 31 34 33 34 30 31 34 32 31 29 34
3 2 3 6 3 3 10 12 7 14 8 11 8 9 11 15 20 25 28 29 32 33 34 37 37 39 37 36 31 29 31 29 36 37 42 42 41 37 35 35 35 33 32 33 32 32 32 34 37
9 5 9 5 5 2 5 13 7 10 13 11 7 11 14 17 18 24 29 31 33 32 31 34 36 37 39 37 34 32 28 29 31 38 39 41 42 41 37 38 37 34 36 36 36 37 34 40 38
12 12 8 12 2 10 9 14 15 12 16 9 9 11 15 18 20 23 26 28 30 29 28 30 35 36 36 36 37 34 34 32 26 32 39 41 42 43 41 39 40 38 40 41 41 38 40 42 42
10 11 13 14 7 7 12 15 7 16 10 7 8 12 16 20 22 25 26 28 29 31 32 31 34 35 37 38 36 37 37 37 40 30 34 38 41 45 41 47 45 42 45 42 43 40 43 44 46
11 15 15 7 3 11 15 17 17 15 8 5 6 12 16 21 26 28 28 30 32 35 37 34 35 37 36 35 36 34 39 40 40 42 35 42 40 43 51 47 46 46 46 44 47 48 48 48 54
13 14 9 10 13 17 14 18 15 14 11 5 4 10 15 24 29 30 30 35 38 39 39 41 39 43 42 40 37 39 36 42 40 35 44 46 33 44 44 50 53 51 51 50 49 53 54 52 51
12 5 9 14 13 11 17 8 13 18 14 4 6 14 22 31 32 31 35 43 41 46 45 43 41 42 41 39 39 38 38 36 41 45 41 45 45 45 42 47 47 58 56 54 55 56 58 59 56
6 9 10 16 18 21 13 7 10 18 15 2 8 17 25 32 30 34 41 45 46 47 49 50 46 47 43 39 39 40 41 37 37 42 46 41 43 42 39 51 50 48 61 61 59 57 62 61 58
9 10 18 20 12 6 2 3 7 4 2 3 11 22 31 32 32 35 43 44 48 52 52 49 47 50 43 43 44 43 41 41 39 39 45 41 35 38 43 40 46 50 60 53 56 57 61 61 61
7 9 7 4 5 9 10 8 11 10 5 5 13 25 29 28 32 39 46 47 52 54 55 51 48 50 49 48 45 45 44 41 39 41 41 43 41 32 31 31 40 51 48 58 53 55 61 61 58
1 3 4 7 6 14 14 9 5 13 9 2 17 28 27 30 35 43 46 47 50 52 50 49 49 44 42 40 40 41 41 40 37 39 38 45 37 35 33 30 34 51 55 50 58 58 59 64 61
6 5 4 5 4 6 8 10 6 11 4 7 22 27 27 32 37 43 45 47 50 49 48 48 53 52 51 49 43 36 32 36 39 39 38 43 40 36 38 29 42 26 51 60 57 62 63 63 67
4 5 2 4 5 7 8 19 12 6 8 13 22 26 29 35 41 42 42 48 48 52 52 52 49 48 49 45 42 48 45 34 28 36 39 37 37 40 33 36 36 44 41 60 69 59 63 65 63
5 5 6 4 4 5 9 6 5 4 5 15 22 27 33 39 43 44 48 49 50 52 51 51 50 48 47 45 41 41 41 47 35 29 37 38 39 36 31 31 33 29 27 61 60 67 63 66 63
7 11 14 6 7 8 9 15 14 5 4 17 25 29 35 37 41 43 47 46 48 48 50 50 47 46 45 45 45 43 42 40 44 37 29 27 37 33 35 31 31 32 40 36 62 62 62 63 66
Wind_Direction
44 88 138 249 236 247 63 70 340 348 340 6 327 316 336 317 308 325 321 318 316 306 304 295 265 249 244 245 243 239 237 243 248 254 259 262 262 257 254 254 251 253 249 245 240 224 223 221 215
36 110 160 270 270 337 81 8 353 5 352 327 318 310 288 316 336 314 314 304 316 308 292 276 270 254 254 250 246 244 242 246 249 251 256 260 264 259 254 252 253 250 247 241 236 224 221 221 212
40 124 249 259 308 64 37 9 352 348 321 311 315 316 310 326 334 309 307 311 311 305 284 266 264 263 255 253 254 249 249 249 250 252 256 259 265 260 250 249 250 247 247 240 231 221 223 221 212
333 242 244 260 80 106 342 22 0 335 122 199 329 306 319 303 317 321 325 328 318 302 281 266 267 262 264 265 256 250 247 252 251 251 254 260 264 256 248 243 250 244 247 241 230 217 220 221 211
321 263 247 252 105 85 234 0 344 337 338 338 344 316 323 359 339 344 333 329 324 309 295 283 273 264 264 262 261 256 254 254 255 256 256 257 261 257 246 239 245 241 242 239 230 215 217 218 213
272 289 242 325 67 91 187 357 333 330 333 315 313 327 4 9 356 338 334 331 324 311 296 293 284 267 261 260 258 257 255 253 255 254 255 255 258 257 251 249 245 245 246 240 231 217 216 214 214
291 278 360 349 34 196 56 342 329 343 334 40 332 304 338 4 352 343 346 344 338 325 312 304 295 278 266 263 260 258 256 255 254 252 252 255 255 254 254 252 248 248 245 241 228 217 218 213 210
287 268 262 71 28 37 51 319 332 329 20 9 5 13 354 344 348 356 1 1 349 338 335 317 299 293 285 267 263 260 260 259 256 250 251 251 251 250 254 254 250 248 244 240 225 218 217 215 208
311 245 281 54 308 356 73 334 357 325 314 45 31 24 359 358 8 17 18 16 11 0 343 323 313 295 283 281 267 267 263 259 255 250 250 251 248 249 254 254 252 245 241 237 223 218 216 209 205
281 286 63 25 328 317 334 351 338 346 53 20 9 359 16 20 28 30 26 22 18 15 8 358 326 301 290 273 272 265 266 260 247 247 250 250 247 246 244 248 247 244 238 235 220 215 218 211 208
23 348 45 56 306 320 328 340 339 337 61 20 355 0 24 28 27 29 26 21 18 14 13 9 5 340 301 285 280 266 265 256 253 250 247 250 248 240 242 241 238 236 232 224 204 212 221 212 205
294 69 41 241 290 319 340 326 42 66 65 360 28 50 40 35 30 25 21 16 14 11 6 7 6 4 348 308 282 278 263 259 255 253 249 245 241 237 235 236 232 230 231 224 211 206 190 203 186
240 101 26 295 298 312 328 357 80 73 15 35 70 54 41 37 31 23 18 13 10 7 3 359 2 1 353 342 304 281 276 262 255 254 251 245 239 237 235 232 228 232 229 224 212 189 182 154 162
347 301 278 113 312 291 353 328 184 71 5 74 72 54 40 32 24 17 13 8 6 2 359 354 353 357 350 347 332 303 274 274 259 256 250 249 241 235 231 229 229 229 230 228 215 216 227 240 238
300 297 113 151 216 288 323 193 166 2 12 83 56 40 32 26 21 16 8 3 358 358 355 358 352 349 346 342 338 323 309 273 271 257 258 250 245 234 228 232 229 231 224 223 222 223 231 235 218
210 225 5 129 233 183 330 304 103 19 72 111 69 44 26 16 15 9 4 358 355 353 351 350 350 345 341 341 329 325 315 295 274 267 259 250 246 237 227 232 228 230 220 217 220 208 195 188 179
205 332 315 299 213 213 318 297 317 50 120 121 69 32 14 7 6 2 360 357 351 347 344 345 348 343 337 332 330 316 310 306 287 276 262 259 247 242 232 232 226 221 212 205 206 192 190 187 188
303 303 300 291 36 312 277 279 314 96 125 113 58 24 15 12 4 353 349 351 351 347 339 336 339 336 332 327 323 318 304 299 299 288 273 262 249 246 237 226 227 219 212 207 207 207 202 195 189
299 290 293 290 112 306 304 300 335 125 136 122 49 23 16 13 357 352 351 349 348 347 338 332 334 329 328 324 318 317 316 307 293 296 291 268 258 246 230 233 225 220 216 210 208 201 197 196 186
293 291 298 313 191 310 308 297 134 156 142 129 37 20 11 358 350 349 350 349 345 341 338 326 322 328 317 312 310 310 308 306 314 294 284 290 258 247 245 236 229 225 219 209 209 202 195 191 192
288 302 316 298 305 282 286 283 157 173 154 135 32 3 358 353 351 351 352 345 339 334 331 326 320 317 317 305 305 306 305 305 305 308 286 274 297 252 246 235 234 229 225 214 210 204 197 190 193
297 12 316 304 310 302 317 290 169 181 179 130 18 4 354 350 353 352 344 340 335 329 325 320 315 313 312 304 299 300 302 297 302 304 312 292 268 293 253 239 233 220 232 217 207 205 201 198 194
297 342 303 290 285 298 277 242 258 166 200 103 9 359 354 352 348 346 340 334 329 325 322 317 311 312 308 303 295 296 294 295 295 297 300 318 280 279 314 234 227 232 219 221 207 207 202 204 199
303 287 299 275 268 263 142 260 237 183 181 356 357 355 352 347 343 336 334 328 325 324 320 316 310 309 307 301 298 292 291 291 293 289 293 304 298 277 282 239 230 227 218 215 208 209 207 205 205
261 307 313 298 232 276 152 317 248 142 128 36 356 353 346 342 336 333 330 328 325 324 322 318 317 310 308 302 298 292 290 285 288 285 285 297 313 296 286 292 239 225 227 215 215 208 205 204 198
316 291 263 288 295 294 313 254 294 135 142 10 352 351 344 336 332 330 328 326 325 323 321 316 318 317 312 309 304 295 291 282 283 282 278 287 301 302 275 283 301 220 214 226 208 210 209 202 200
139 215 14 288 261 278 237 239 142 159 215 350 342 347 340 331 329 328 326 327 326 326 323 318 315 311 304 299 291 290 299 288 282 280 277 280 291 305 288 275 257 310 225 210 207 208 205 200 201
264 123 180 201 270 269 268 299 273 188 340 340 345 339 333 328 326 328 328 328 329 327 325 323 320 314 310 309 301 289 284 285 296 281 274 275 283 293 291 284 271 256 225 206 207 200 200 197 197
186 217 222 285 241 263 299 283 114 5 358 345 333 334 330 330 329 329 328 330 328 329 326 323 321 318 314 309 311 306 299 277 276 293 278 272 277 283 283 295 286 253 295 206 200 202 201 203 199
273 244 215 217 216 226 266 275 281 224 355 343 333 330 329 328 326 324 328 327 328 328 327 324 322 318 313 310 306 305 303 296 283 275 285 284 270 274 286 290 301 264 252 251 210 198 206 205 198